CZ-6A DEB

Satellite information

Favourite Embed

Satellite Type and Status

DEBRISIN ORBIT

Key statistics

Satellite CZ-6A DEB at a glance.

Uptime

495

Days in orbit

Revolutions

≈ 14.8

Per day

Orbit

LEO

Low Earth Orbit

Inclination

88.9

Latest

Satellite identification and parameters

Extended collection of information and parameters for CZ-6A DEB.

Object identification

Identified? True

Debris? True

Object name: CZ-6A DEB

International designator: 2024-140LQ

Object number (NORAD): 60965

Object ID (CCSDS): 60965

Country: PEOPLES REPUBLIC OF CHINA (PRC)

Current information (Y/N): Y

RCS size: SMALL

Orbital parameters

Period: 97.042 minutes

Inclination: 88.9264 deg

SMA: 6995.185 km

Apoapsis: 745.979 km

Periapsis: 488.12 km

RAAN: 285.4521 deg

Eccentricy: 0.0184312

Argument of periapsis: 105.5896 deg

Mean anomaly: 256.5757 deg

Mean motion: 14.83897751 rev/day

Mean motion (dot): 0.00012905 rev/day2

B* drag term: 0.0011446 1/REarth

Two-line elements (TLE)

Creation date: Dec. 12, 2025, 7:26 a.m.

Reference frame: TEME

Reference center: EARTH

Epoch: Dec. 11, 2025, 8:34 p.m. UTC

TLE line 0: 0 CZ-6A DEB

TLE line 1: 1 60965U 24140LQ 25345.85759810 .00012905 00000-0 11446-2 0 9994

TLE line 2: 2 60965 88.9264 285.4521 0184312 105.5896 256.5757 14.83897751 70574

Live tracking on map

Real-time ground track for satellite CZ-6A DEB.

In-orbit conjunctions

A list of the most updated potential collisions computed for object CZ-6A DEB.

Target Orbit TCA Probability of collision Miss distance Type
SL-14 R/B LEO 2025-04-10 11:28:36 0.0001005444 176.0 (m) ROCKET BODY
CZ-4B R/B SSO 2025-01-07 16:06:00 0.0006484643 371.0 (m) ROCKET BODY
COSMOS 2251 DEB LEO 2024-11-07 23:41:56 0.0001366622 778.0 (m) DEBRIS
IRIDIUM 33 DEB LEO 2024-10-10 10:58:27 0.00362287 74.0 (m) DEBRIS
DELTA 1 DEB SSO 2024-09-29 06:30:24 0.0001135828 326.0 (m) DEBRIS

Associated space launch

18 Low Earth Orbit communication satellites with Ku, Q and V band payloads for the G60 constellation operated by Shanghai Spacecom Satellite Technology (SSST) with funding backed by the Shanghai local government. Initial constellation will consist of 1296 satellites by 2027 with long term plans to expand it to 12000 satellites.

CZ-6A DEB was lifted into orbit during the mission ‘Long March 6A | G60 Polar Group 01’, on board a Long March 6A space rocket.

The launch took place on Aug. 6, 2024, 6:42 a.m. from Launch Complex 9A.

For more information about the launch, click the button.

Launch to space Long March 6A | G60 Polar Group 01
Long March 6A | G60 Polar Group 01

Agency: N/A

Status: Launch Successful

Launch date: Aug. 6, 2024, 6:42 a.m. UTC

Rocket: Long March 6A

Launch pad: Launch Complex 9A

Location: Taiyuan Satellite Launch Center, People's Republic of China

...

Latest news about this satellite

News about space launch
Brightness of first Chinese broadband constellation satellites alarms astronomers

The first satellites of a Chinese broadband constellation are significantly brighter than those of Western systems, posing a new challenge for astronomers.

News about space launch
Chinese rocket stage breaks up into cloud of more than 700 pieces of space debris

HELSINKI — A Chinese Long March 6A rocket’s upper stage has fragmented into a cloud of over 700 pieces of space debris, adding to concerns about long-term orbital safety. China […]

News about space launch
China's Thousand Sails Megaconstellation Kicks Off with Dangerous Debris Field

China's Thousand Sails Megaconstellation Kicks Off with Dangerous Debris Field


Newsletter sign-up

Weekly statistics, charts and insights to help you stay on top of the space industry.